Location: Bratsk-Energetik
(56.3300°N, 101.7600°E)
Time: 22:18:31
(UTC+08:00)

ISS - Pass Details

Date: 21 May 2017
Orbit: 402 x 409 km, 51.6° (Epoch: 25 May)

Event Time Altitude Azimuth Distance (km) Brightness Sun altitude
Exits shadow 02:47:02 10° 246° (WSW) 1,456 -1.4 -10.8°
Maximum altitude 02:50:03 36° 178° (S) 665 -3.2 -10.6°
Drops below altitude 10° 02:53:05 10° 110° (ESE) 1,464 -0.9 -10.5°
Sets 02:55:15 0° 102° (ESE) 2,322 0.2 -10.3°
